Location: Kielce
(50.8833°N, 20.6167°E)
Time: 01:23:38
(UTC+02:00)

Transit 2A Rocket - Visible Passes

Search period start: 19 April 2021 00:00
Search period end: 29 April 2021 00:00
Orbit: 594 x 908 km, 66.7° (Epoch: 18 April)

Date Brightness Start Highest point End Pass type
(mag) Time Alt. Az. Time Alt. Az. Time Alt. Az.
19 Apr 5.5 00:35:10 10° NW 00:38:11 43° NW 00:38:11 43° NW visible
19 Apr 7.5 20:28:52 10° N 20:29:13 10° N 20:29:35 10° N visible
19 Apr 6.9 22:10:41 10° NNW 22:13:37 17° NNE 22:16:37 10° ENE visible
19 Apr 5.1 23:52:35 10° NNW 23:56:30 58° NNE 23:56:30 58° NNE visible
20 Apr 7.0 01:35:44 10° WNW 01:36:23 13° WNW 01:36:23 13° WNW visible
20 Apr 7.1 21:28:19 10° N 21:30:33 14° NNE 21:32:51 10° NE visible
20 Apr 5.5 23:10:04 10° NNW 23:14:15 40° NE 23:14:51 38° ENE visible
21 Apr 6.3 00:52:39 10° NW 00:54:44 24° WNW 00:54:44 24° WNW visible
21 Apr 7.2 20:45:55 10° N 20:47:26 11° NNE 20:48:57 10° NNE visible
21 Apr 6.1 22:27:37 10° NNW 22:31:26 28° NE 22:33:14 21° ENE visible
22 Apr 5.4 00:09:51 10° NW 00:13:07 44° WNW 00:13:07 44° WNW visible
22 Apr 6.6 21:45:11 10° NNW 21:48:31 20° NNE 21:51:37 11° ENE visible
22 Apr 4.6 23:27:11 10° NW 23:31:30 82° N 23:31:30 82° N visible
23 Apr 7.1 01:10:55 10° WNW 01:11:23 12° WNW 01:11:23 12° WNW visible
23 Apr 6.9 21:02:47 10° NNW 21:05:31 16° NNE 21:08:18 10° ENE visible
23 Apr 5.1 22:44:38 10° NNW 22:48:59 53° NE 22:49:55 45° E visible
24 Apr 6.4 00:27:32 10° WNW 00:29:49 22° W 00:29:49 22° W visible
24 Apr 7.0 20:20:24 10° N 20:22:25 13° NNE 20:24:29 10° NE visible
24 Apr 5.7 22:02:08 10° NNW 22:06:14 35° NE 22:08:22 23° E visible
24 Apr 5.4 23:44:35 10° NW 23:48:16 41° W 23:48:16 41° W visible
25 Apr 6.2 21:19:42 10° NNW 21:23:22 25° NE 21:26:50 12° E visible
25 Apr 4.6 23:01:51 10° NW 23:06:18 71° SW 23:06:44 66° SSW visible
26 Apr 6.6 20:37:17 10° NNW 20:40:25 19° NNE 20:43:40 10° ENE visible
26 Apr 4.7 22:19:14 10° NW 22:23:41 72° NE 22:25:14 41° ESE visible
27 Apr 6.6 00:02:35 10° WNW 00:05:07 19° W 00:05:07 19° W visible
27 Apr 5.3 21:36:41 10° NNW 21:40:59 46° NE 21:43:45 21° ESE visible
27 Apr 5.8 23:19:24 10° NW 23:23:24 31° WSW 23:23:38 31° WSW visible
28 Apr 5.9 20:54:13 10° NNW 20:58:12 31° NE 21:02:18 10° ESE visible
28 Apr 5.1 22:36:33 10° NW 22:40:55 52° WSW 22:42:12 39° SSW visible
